Cooperstown, ND

2:27 AM CDT on July 22, 2017 (GMT -0500)
Cooperstown

Weather History for KS32 - September, 2013

Change the Weather History Date:

Friday, September 20, 2013

  Actual Average (KJMS) Record (KJMS)
Temperature  
Mean Temperature 49 °F -  
Max Temperature 57 °F 64 °F 96 °F (1937)
Min Temperature 39 °F 42 °F 19 °F (1918)
Degree Days  
Heating Degree Days 16    
Moisture  
Dew Point 47 °F    
Average Humidity 87    
Maximum Humidity 100    
Minimum Humidity 55    
Precipitation  
Precipitation 0.00 in - - ()
Sea Level Pressure  
Sea Level Pressure 29.96 in    
Wind  
Wind Speed 13 mph (NW)    
Max Wind Speed 22 mph    
Max Gust Speed 28 mph    
Visibility 10 miles    
Events Rain    
Averages and records for this station are not official NWS values.
T = Trace of Precipitation, MM = Missing Value Source: NWS Daily Summary

Daily Weather History Graph

Daily Weather History Graph

Search for Another Location

Airport or City:

Trip Planner

Search our weather history database for the weather conditions in past years. The results will help you decide how hot, cold, wet, or windy it might be!

Date:

Astronomy

Sep. 20, 2013 Rise Set
Actual Time 7:16 AM CDT 7:33 PM CDT
Civil Twilight 6:46 AM CDT 8:04 PM CDT
Nautical Twilight 6:09 AM CDT 8:40 PM CDT
Astronomical Twilight 5:32 AM CDT 9:17 PM CDT
Moon 7:58 PM CDT (9/20) 8:41 AM CDT (9/20)
Length of Visible Light 13h 18m
Length of Day
12h 16m
Full, 98% of the Moon is Illuminated
Sep 20
Full
Sep 26
Last Quarter
Oct 4
New
Oct 11
First Quarter
Oct 18
Full

Hourly Weather History & Observations

Time (CDT) Temp. Windchill Dew Point Humidity Pressure Visibility Wind Dir Wind Speed Gust Speed Precip Events Conditions
12:15 AM 53.6 °F - 53.6 °F 100% 29.92 in 10.0 mi NW 11.5 mph - N/A   Overcast
12:35 AM 53.6 °F - 53.6 °F 100% 29.92 in 10.0 mi NW 15.0 mph 21.9 mph N/A   Mostly Cloudy
12:55 AM 51.8 °F - 51.8 °F 100% 29.92 in 10.0 mi NNW 16.1 mph 24.2 mph N/A   Mostly Cloudy
1:15 AM 51.8 °F - 51.8 °F 100% 29.92 in 9.0 mi NNW 16.1 mph - N/A   Overcast
1:35 AM 51.8 °F - 51.8 °F 100% 29.92 in 9.0 mi NW 15.0 mph 21.9 mph N/A   Overcast
1:55 AM 50.0 °F - 50.0 °F 100% 29.92 in 10.0 mi NW 15.0 mph - N/A   Overcast
2:15 AM 50.0 °F - 50.0 °F 100% 29.93 in 10.0 mi NNW 13.8 mph - N/A   Overcast
2:35 AM 50.0 °F - 50.0 °F 100% 29.93 in 10.0 mi NW 13.8 mph 18.4 mph N/A   Overcast
2:55 AM 50.0 °F - 50.0 °F 100% 29.93 in 10.0 mi NW 12.7 mph 17.3 mph N/A   Overcast
3:15 AM 50.0 °F - 50.0 °F 100% 29.93 in 10.0 mi NW 10.4 mph - N/A   Overcast
3:35 AM 50.0 °F - 50.0 °F 100% 29.93 in 10.0 mi NW 12.7 mph - N/A   Overcast
3:55 AM 50.0 °F - 50.0 °F 100% 29.93 in 10.0 mi NW 11.5 mph - N/A   Overcast
4:15 AM 50.0 °F - 50.0 °F 100% 29.93 in 10.0 mi NW 11.5 mph - N/A   Overcast
4:35 AM 48.2 °F - 48.2 °F 100% 29.93 in 10.0 mi WNW 15.0 mph 18.4 mph N/A   Overcast
4:55 AM 48.2 °F - 48.2 °F 100% 29.93 in 10.0 mi NW 13.8 mph - N/A   Overcast
5:15 AM 48.2 °F - 48.2 °F 100% 29.93 in 10.0 mi WNW 15.0 mph - N/A   Overcast
5:35 AM 48.2 °F - 48.2 °F 100% 29.93 in 10.0 mi WNW 13.8 mph - N/A   Overcast
5:55 AM 48.2 °F - 48.2 °F 100% 29.93 in 10.0 mi NW 12.7 mph - N/A   Overcast
6:15 AM 48.2 °F - 48.2 °F 100% 29.93 in 10.0 mi NW 11.5 mph 17.3 mph N/A   Overcast
6:35 AM 48.2 °F - 48.2 °F 100% 29.94 in 10.0 mi WNW 13.8 mph - N/A   Overcast
6:55 AM 48.2 °F - 48.2 °F 100% 29.94 in 10.0 mi NW 10.4 mph - N/A   Overcast
7:15 AM 48.2 °F - 48.2 °F 100% 29.95 in 10.0 mi WNW 9.2 mph - N/A   Overcast
7:35 AM 48.2 °F - 48.2 °F 100% 29.95 in 10.0 mi WNW 10.4 mph - N/A   Overcast
7:55 AM 48.2 °F - 48.2 °F 100% 29.96 in 10.0 mi WNW 9.2 mph - N/A   Overcast
8:15 AM 48.2 °F - 48.2 °F 100% 29.96 in 10.0 mi WNW 9.2 mph - N/A   Overcast
8:35 AM 48.2 °F - 48.2 °F 100% 29.96 in 10.0 mi WNW 11.5 mph - N/A   Overcast
8:55 AM 48.2 °F - 48.2 °F 100% 29.97 in 10.0 mi WNW 11.5 mph - N/A   Overcast
9:15 AM 48.2 °F - 48.2 °F 100% 29.97 in 3.0 mi WNW 13.8 mph 20.7 mph N/A Rain Light Rain
9:35 AM 48.2 °F - 48.2 °F 100% 29.97 in 10.0 mi WNW 9.2 mph - N/A   Mostly Cloudy
9:55 AM 50.0 °F - 50.0 °F 100% 29.97 in 10.0 mi NW 12.7 mph - N/A   Overcast
10:15 AM 50.0 °F - 50.0 °F 100% 29.97 in 10.0 mi NW 12.7 mph 21.9 mph N/A   Mostly Cloudy
10:35 AM 50.0 °F - 48.2 °F 94% 29.97 in 10.0 mi NW 16.1 mph 23.0 mph N/A   Mostly Cloudy
10:55 AM 53.6 °F - 48.2 °F 82% 29.97 in 10.0 mi NNW 19.6 mph 24.2 mph N/A   Scattered Clouds
11:15 AM 53.6 °F - 48.2 °F 82% 29.98 in 10.0 mi NW 16.1 mph 23.0 mph N/A   Scattered Clouds
11:35 AM 55.4 °F - 44.6 °F 67% 29.97 in 10.0 mi NNW 21.9 mph 27.6 mph N/A   Mostly Cloudy
11:55 AM 55.4 °F - 44.6 °F 67% 29.97 in 10.0 mi NNW 17.3 mph 25.3 mph N/A   Mostly Cloudy
12:15 PM 55.4 °F - 44.6 °F 67% 29.97 in 10.0 mi NW 18.4 mph 24.2 mph N/A   Mostly Cloudy
12:35 PM 55.4 °F - 44.6 °F 67% 29.97 in 10.0 mi NW 17.3 mph 23.0 mph N/A   Mostly Cloudy
12:55 PM 53.6 °F - 44.6 °F 72% 29.97 in 10.0 mi NNW 18.4 mph - N/A   Overcast
1:15 PM 53.6 °F - 42.8 °F 67% 29.97 in 10.0 mi NNW 13.8 mph - N/A   Overcast
1:35 PM 53.6 °F - 42.8 °F 67% 29.97 in 10.0 mi NW 13.8 mph 19.6 mph N/A   Overcast
1:55 PM 53.6 °F - 44.6 °F 72% 29.97 in 10.0 mi NW 15.0 mph - N/A   Overcast
2:15 PM 55.4 °F - 44.6 °F 67% 29.96 in 10.0 mi NNW 15.0 mph - N/A   Overcast
2:35 PM 55.4 °F - 44.6 °F 67% 29.96 in 10.0 mi NW 10.4 mph 16.1 mph N/A   Overcast
2:55 PM 55.4 °F - 42.8 °F 63% 29.96 in 10.0 mi NNW 17.3 mph - N/A   Overcast
3:15 PM 57.2 °F - 42.8 °F 59% 29.96 in 10.0 mi NW 13.8 mph 20.7 mph N/A   Overcast
3:35 PM 57.2 °F - 41.0 °F 55% 29.96 in 10.0 mi NNW 15.0 mph 20.7 mph N/A   Overcast
3:55 PM 57.2 °F - 42.8 °F 59% 29.96 in 10.0 mi NNW 15.0 mph - N/A   Overcast
4:15 PM 57.2 °F - 44.6 °F 63% 29.96 in 10.0 mi North 13.8 mph - N/A   Overcast
4:35 PM 55.4 °F - 42.8 °F 63% 29.96 in 10.0 mi NNW 17.3 mph 21.9 mph N/A   Overcast
4:55 PM 57.2 °F - 42.8 °F 59% 29.96 in 10.0 mi NNW 11.5 mph 19.6 mph N/A   Overcast
5:15 PM 57.2 °F - 42.8 °F 59% 29.95 in 10.0 mi NNW 16.1 mph - N/A   Overcast
5:35 PM 57.2 °F - 42.8 °F 59% 29.95 in 10.0 mi NNW 15.0 mph - N/A   Mostly Cloudy
5:55 PM 55.4 °F - 41.0 °F 58% 29.95 in 10.0 mi NNW 13.8 mph - N/A   Clear
6:15 PM 55.4 °F - 44.6 °F 67% 29.96 in 10.0 mi North 15.0 mph 19.6 mph N/A   Partly Cloudy
6:35 PM 55.4 °F - 44.6 °F 67% 29.96 in 10.0 mi NNW 9.2 mph - N/A   Partly Cloudy
6:55 PM 53.6 °F - 42.8 °F 67% 29.96 in 10.0 mi NNW 10.4 mph - N/A   Clear
7:15 PM 51.8 °F - 42.8 °F 71% 29.96 in 10.0 mi NNW 6.9 mph - N/A   Clear
7:35 PM 48.2 °F - 44.6 °F 87% 29.96 in 10.0 mi NW 6.9 mph - N/A   Clear
7:55 PM 48.2 °F - 44.6 °F 87% 29.96 in 10.0 mi North 6.9 mph - N/A   Scattered Clouds
8:15 PM 48.2 °F - 46.4 °F 93% 29.96 in 10.0 mi North 5.8 mph - N/A   Partly Cloudy
8:35 PM 46.4 °F 44.3 °F 46.4 °F 100% 29.97 in 10.0 mi NNW 4.6 mph - N/A   Scattered Clouds
8:55 PM 48.2 °F - 46.4 °F 93% 29.97 in 10.0 mi NNW 5.8 mph - N/A   Scattered Clouds
9:15 PM 48.2 °F - 46.4 °F 93% 29.97 in 10.0 mi Calm Calm - N/A   Mostly Cloudy
9:35 PM 48.2 °F - 46.4 °F 93% 29.97 in 10.0 mi Calm Calm - N/A   Overcast
9:55 PM 46.4 °F 45.2 °F 46.4 °F 100% 29.98 in 10.0 mi North 3.5 mph - N/A   Overcast
10:15 PM 50.0 °F - 46.4 °F 87% 29.98 in 10.0 mi North 5.8 mph - N/A   Mostly Cloudy
10:35 PM 48.2 °F - 46.4 °F 93% 29.98 in 10.0 mi North 4.6 mph - N/A   Partly Cloudy
10:55 PM 46.4 °F 44.3 °F 46.4 °F 100% 29.99 in 10.0 mi North 4.6 mph - N/A   Clear
11:15 PM 46.4 °F 45.2 °F 46.4 °F 100% 29.99 in 10.0 mi North 3.5 mph - N/A   Clear
11:35 PM 41.0 °F - 41.0 °F 100% 29.99 in 10.0 mi Calm Calm - N/A   Clear
11:55 PM 39.2 °F 37.0 °F 39.2 °F 100% 29.99 in 10.0 mi West 3.5 mph - N/A   Clear